Regional Weather Roundup
Issued by NWS Cleveland, OH

Home | Current Version | Previous Version | Graphics & Text | Print | Product List | Glossary On
Versions: 1 2 3 4 5 6 7 8 9 10 11 12 13 14 15 16 17 18 19 20 21 22 23 24 25 26 27 28 29 30 31 32 33 34 35 36 37 38 39 40 41 42 43 44 45 46 47 48 49 50
454
ASUS41 KCLE 110802
RWRCLE
OHIO REGIONAL WEATHER ROUNDUP
NATIONAL WEATHER SERVICE CLEVELAND, OH
300 AM EST THU FEB 11 2016

NOTE: "FAIR" INDICATES FEW OR NO CLOUDS BELOW 12,000 FEET WITH NO
SIGNIFICANT WEATHER AND/OR OBSTRUCTIONS TO VISIBILITY.

OHZ001>008-015>018-024>027-034-035-043-044-110900-
   NORTHWEST OHIO

CITY           SKY/WX    TMP DP  RH WIND       PRES   REMARKS
DEFIANCE       CLOUDY    16   8  71 VRB5      30.10S WCI   9
FINDLAY        CLOUDY    12   7  80 W8        30.07S WCI   0
TOLEDO EXPRESS MOCLDY    12   3  67 W10       30.08S WCI  -1
TOLEDO EXEC    PTCLDY    12   4  70 NW8       30.09R WCI   0
LIMA           CLOUDY    13   6  74 W9        30.07S WCI   1
$$

OHZ009>014-019>023-028>033-038-089-110900-
   NORTHEAST OHIO

CITY           SKY/WX    TMP DP  RH WIND       PRES   REMARKS
CLE-HOPKINS    FLURRIES  15   4  61 NW20G26   30.04R WCI  -2
CLE-LAKEFRONT  CLOUDY    18   5  57 NW25G38   30.02R WCI   0
CUY CO. ARPT   NOT AVBL
LORAIN-ELYRIA  LGT SNOW  15   6  67 NW14G22   30.03R WCI   0
ASHTABULA      CLOUDY    13   1  59 NW17G23   29.95R WCI  -4
AKRON-CANTON   FLURRIES  12   4  70 W14       29.97R WCI  -3
WOOSTER        CLEAR     10   4  76 W14       30.01R WCI  -6
MANSFIELD      CLEAR      9   5  84 W7        30.01R WCI  -2
YOUNGSTOWN     FLURRIES  13   8  81 W9        29.94R WCI   1
$$

OHZ042-051>053-060>062-070>072-077>081-110900-
  SOUTHWEST OHIO

CITY           SKY/WX    TMP DP  RH WIND       PRES   REMARKS
CINC-COVINGTON FLURRIES  14   6  70 W3        30.14S
CINC-LUNKEN    CLOUDY    16   7  67 W6        30.19S WCI   7
HAMILTON       CLEAR      8   4  83 CALM      30.17S
DAYTON         PTCLDY     5   1  83 W7        30.11R WCI  -7
WRIGHT-PAT AFB PTCLDY     8   2  75 SW5       30.12R WCI   0
DAYTON GENERAL CLEAR     11   5  77 SW3       30.11S
WILMINGTON     CLEAR      9   3  77 W7        30.10S WCI  -2
$$

OHZ036-037-039>041-045>050-054>059-063>069-073>076-082>088-110900-
  CENTRAL AND SOUTHEAST OHIO

CITY           SKY/WX    TMP DP  RH WIND       PRES   REMARKS
COLUMBUS       FLURRIES  12   3  67 W14       30.09R WCI  -3
OSU AIRPORT    PTCLDY     9   3  77 W8        30.08S WCI  -3
BOLTON FIELD   NOT AVBL
RICKENBACK AFB NOT AVBL
NEWARK         MOCLDY    13   4  67 MISG      30.07S
MARION         CLEAR     13   5  70 NW9       30.06S WCI   1
LANCASTER      MOCLDY     8   1  73 W5        30.10S WCI   0
ZANESVILLE     CLOUDY    13   4  67 W8        30.06S WCI   2
NEW PHILLY     LGT SNOW  14  10  84 W8        30.03S FOG     WCI   3
$$




USA.gov is the U.S. government's official web portal to all federal, state and local government web resources and services.